NOAA 16 DEB, 42337

Orbit data source: Space-Track

NOAA 16 DEB, 42337 is space debris in SSO originally from a launch on Thu, 21 Sep 2000 UTC launched from the Air Force Western Test Range (AFWTR). Debris objects in space refer to the collection of defunct objects orbiting the Earth. Examples of debris include non-operational satellites, rocket bodies, and fragments generated from explosions, collisions, or faulty payload assembly.

Loading next visibility...
Identifier
42337, 2000-055QD
Orbit
SSO
Country
Flag of USUS
Related business
Manufacturer
Unknown
Mission
Spacecraft
Bus & Motor
Unknown
Mass
Unknown
Launch date (UTC)
2000-09-21 (25 years ago)
Launch vehicle
Unknown
Launch site
Air Force Western Test Range (AFWTR)
Object type
Payload
Rocket body
Debris
Shape & HBR
Unknown shape, 0.1 m
Radar Cross Section
Small (<0.1 m²)

Expand to show TLE details & history
Last TLE update: 18 hours ago

TLE from 18 hours ago
0 NOAA 16 DEB
1 42337U 00055QD  25286.68997791  .00020664  00000-0  38233-2 0  9997
2 42337  98.7991  82.3864 0037240  11.8355 348.3712 14.64925760505949
Epoch: 2025-10-13T16:33Z
TLE epoch observation values (Epoch: 2025-10-13T16:33:34.091Z)
Latitude
-0.00008°
Longitude
171.50522°
Altitude
654.55 km
Speed
7.544 km/s
True Right ascension
05h 29m 32s
True Declination
0° 00' 00"
Sunlit
Object was in full shadow at epoch
Visualization orbit readout
Latitude
Unknown
Longitude
Unknown
Altitude
Unknown
Speed
Unknown
Apparent Right ascension
Unknown
Apparent Declination
Unknown
Sunlit
N/A
Visualization observer readout
Local Sidereal Time
05:23:09
Azimuth
Unknown
Elevation
Unknown
Doppler factor
Unknown
Orbital elements
Apogee altitude
700.681 km
Perigee altitude
648.153 km
Semi-major axis
7,052.554 km
Eccentricity
0.00372
Inclination
98.7991°
RAAN
82.3864°
Arg. of periapsis
11.8355°
True anomaly
348.28479°
Mean anomaly
348.3712°
Eccentric anomaly
348.32803°
Mean motion
3.66457 °/min
Orbital period
98.24 mins
BSTAR
0.0038233
Loading maneuver chart data...
Computing Atmospheric mass density...
Loading historical data...
Loading historical data...
Loading historical data...
Loading historical data...
Loading historical data...
Loading historical data...
Loading historical data...

Documentation

Showing up to 5 results
|